Location: Luxembourg
(49.6117°N, 6.1300°E)
Time: 11:12:22
(UTC+02:00)

Tiangong 2 - Pass Details

Date: 23 May 2019
Orbit: 376 x 388 km, 42.8° (Epoch: 24 June)

Event Time Altitude Azimuth Distance (km) Brightness Sun altitude
Rises 23:09:36 0° 252° (WSW) 2,233 5.2 -12.9°
Reaches altitude 10° 23:11:54 10° 237° (WSW) 1,381 3.9 -13.1°
Maximum altitude 23:14:26 23° 183° (S) 858 2.4 -13.4°
Enters shadow 23:14:29 23° 181° (S) 858 2.3 -13.4°
